Location: Arroyo de Fuente Vieja
(40.4902°N, 4.1175°W)
Time: 17:04:59
(UTC+00:00)

CZ-4 R/B - Pass Details

Date: 18 April 2024
Orbit: 516 x 572 km, 97.6° (Epoch: 24 May)

Event Time Altitude Azimuth Distance (km) Brightness Sun altitude
Rises 19:28:50 0° 160° (SSE) 2,713 4.5 -6.2°
Reaches altitude 10° 19:30:59 10° 157° (SSE) 1,814 3.6 -6.6°
Maximum altitude 19:34:51 66° 76° (ENE) 595 1.3 -7.3°
Drops below altitude 10° 19:38:42 10° 354° (N) 1,794 4.3 -7.9°
Sets 19:40:49 0° 351° (N) 2,680 5.3 -8.3°
